Regional Weather Roundup
Issued by NWS

Home | Current Version | Previous Version | Text Only | Print | Product List | Glossary Off
Versions: 1 2 3 4 5 6 7 8 9 10 11 12 13 14 15 16 17 18 19 20 21 22 23 24 25 26 27 28 29 30 31 32 33 34 35 36 37 38 39 40 41 42 43 44 45 46 47 48 49 50

000
ASUS43 KDTX 301910
RWRMI
MICHIGAN HOURLY REGIONAL WEATHER ROUNDUP
NATIONAL WEATHER SERVICE DETROIT/PONTIAC MI
300 PM EDT WED JUL 30 2014

NOTE: "FAIR" INDICATES FEW OR NO CLOUDS BELOW 12,000 FEET WITH NO
SIGNIFICANT WEATHER AND/OR OBSTRUCTION TO VISIBILITY.

MIZ047>049-052>055-059>063-066>070-074>076-081>083-302000-
SOUTHEAST LOWER MICHIGAN

CITY           SKY/WX    TMP DP  RH WIND       PRES   REMARKS
ADRIAN         CLOUDY    74  56  53 N6        30.00F
ALMA           MOSUNNY   71  50  46 NW9       29.99F
ANN ARBOR      PTSUNNY   76  55  48 MISG      29.99F
BAD AXE        SUNNY     69  51  52 W5        29.99F
CARO           SUNNY     73  48  40 W5        29.99S
DETROIT CITY   MOSUNNY   77  54  44 NW7       29.98F
DETROIT        PTSUNNY   75  57  53 W12       29.99F
FLINT          MOSUNNY   71  55  56 W6        29.99F
GROSSE ILE     PTSUNNY   72  63  73 S6        29.97F
HILLSDALE      PTSUNNY   73  57  57 W7        30.01S
HOWELL         MOSUNNY   70  58  65 CALM      30.00S

CITY           SKY/WX    TMP DP  RH WIND       PRES   REMARKS
JACKSON        PTSUNNY   73  58  59 VRB5      30.00F
LAMBERTVILLE   CLOUDY    72  57  60 SW3       29.99F
LANSING        MOSUNNY   74  56  53 SW9       29.99F
LAPEER         FAIR      72  50  46 W7        30.00S
MASON          SUNNY     74  56  53 W6        29.99F
MONROE         MOSUNNY   73  57  56 NW9       29.97S
MT. CLEMENS    MOSUNNY   74  56  52 W7        29.97F
PONTIAC        PTSUNNY   72  54  53 W9        29.99F
PORT HOPE        N/A     65  56  72 NE5       29.99S
PORT HURON     LGT RAIN  63  59  88 CALM      29.99S
TRI CITIES     MOSUNNY   74  51  44 W10       29.99F
TROY           PTSUNNY   71  57  61 NW5       30.00S
SAGINAW HB     MOSUNNY   73  48  40 NW5       29.99S
$$
MIZ043>046-050>051-056>058-064>065-071>073-077>080-302000-
SOUTHWEST LOWER MICHIGAN

CITY           SKY/WX    TMP DP  RH WIND       PRES   REMARKS
BATTLE CREEK   MOSUNNY   74  57  55 W9        30.01F
BENTON HARBOR  MOSUNNY   67  58  72 W12       30.04S
BIG RAPIDS     PTSUNNY   74  46  37 NW6       29.99F
COLDWATER      MOSUNNY   75  58  54 W9        30.01S
FREMONT        FAIR      75  43  31 NW5       30.00S
HOLLAND        SUNNY     69  61  75 W10       30.04S
GRAND RAPIDS   PTSUNNY   77  57  50 W8G17     30.00F
IONIA          MOCLDY    69  57  66 N3        29.99F
KALAMAZOO      PTSUNNY   76  56  49 W12       30.01S
LUDINGTON      SUNNY     69  58  66 NW12      30.04S
MARSHALL       MOSUNNY   72  58  60 W8G16     29.99F
MOUNT PLEASANT SUNNY     74  48  39 W8        29.98F
MUSKEGON       MOSUNNY   69  54  58 W14       30.02F
SOUTH HAVEN    CLOUDY    66  61  84 NW7       30.04S
$$
MIZ016>042-302000-
NORTHERN LOWER MICHIGAN

CITY           SKY/WX    TMP DP  RH WIND       PRES   REMARKS
ALPENA         MOSUNNY   69  52  54 N9        29.97F
BEAVER ISLAND  PTSUNNY   66  54  63 SW8       30.00S
BELLAIRE       MOSUNNY   69  48  46 W7        29.99F
CADILLAC       PTSUNNY   71  52  51 NW8       30.00S
CHARLEVOIX     MOSUNNY   64  55  72 W9        30.03S
FRANKFORT      SUNNY     67  54  61 W10       30.02F
GAYLORD        MOSUNNY   67  47  48 VRB6      29.99F
GRAYLING       MOSUNNY   72  46  39 W8        30.00S
HARBOR SPRINGS PTSUNNY   66  52  61 SW9       29.99S
HOUGHTON LAKE  MOSUNNY   71  48  43 W8        29.99F
MANISTEE       SUNNY     64  52  63 NW10      30.04S
OSCODA         PTSUNNY   64  54  70 E7        29.98S
PELLSTON       MOSUNNY   69  45  41 NW7       29.98F
ROGERS CITY    SUNNY     64  54  69 N8        30.00S
TRAVERSE CITY  PTSUNNY   69  55  60 NE9       29.99F
$$
MIZ007>008-015-302000-
EASTERN UPPER MICHIGAN

CITY           SKY/WX    TMP DP  RH WIND       PRES   REMARKS
KINROSS        PTSUNNY   64  48  55 NW10      29.98S
MACKINAC ISLAN MOSUNNY   63  51  65 SW7       29.98F
NEWBERRY       CLOUDY    63  51  63 NW7       29.99S
S. S. MARIE    PTSUNNY   64  49  57 NW12      29.97F
MUNISING         N/A     65  51  60 E6        29.98F
$$
MIZ004>006-011>014-085-302000-
CENTRAL UPPER MICHIGAN

CITY           SKY/WX    TMP DP  RH WIND       PRES   REMARKS
MANISTIQUE     PTSUNNY   66  56  72 SW12      29.99S
ESCANABA       CLOUDY    66  50  55 S10       30.00S
MENOMINEE      PTSUNNY   68  54  60 SE10      30.01S
SAWYER-GWINN   PTSUNNY   70  46  43 SW6       29.98F
$$
MIZ001>003-009>011-084-302000-
WESTERN UPPER MICHIGAN

CITY           SKY/WX    TMP DP  RH WIND       PRES   REMARKS
IRON MOUNTAIN  MOSUNNY   73  42  32 MISG      30.00S
HOUGHTON       PTSUNNY   67  54  63 W13       29.96F
COPPER HARBOR    N/A     60  56  86 N12       29.96R
$$

ABBREVIATIONS USED IN REMARKS
   TC - TEMPERATURE IN CELSIUS
  WCI - WIND CHILL INDEX
   HX - HEAT INDEX
  VSB - VISIBILITY




USA.gov is the U.S. government's official web portal to all federal, state and local government web resources and services.